TVS2DE LDSP-LKPR

Flight info

Callsign TVS2DE
Flight time 1h 12m
Altitude 38000
Route SIRMI DCT PETOV DCT NAVTI DCT BODAL DCT VLM
Aircraft B738/M-SDE3FGHIJ1RWXY/LB1

Departure

Time 2026-05-04 15:19
Airport Split Saint Jerome Airport (LDSP)

Arrival

Time 2026-05-04 16:31
Airport Václav Havel Airport Prague (LKPR)
Time Latitude Longitude Altitude Speed Heading
2026-05-04 14:49 43.53693 16.29807 79 ft 0 kts 115°
2026-05-04 15:13 43.53693 16.29808 79 ft 0 kts 115°
2026-05-04 15:13 43.53695 16.29814 84 ft 1 kts 76°
2026-05-04 15:14 43.53702 16.29818 83 ft 2 kts 18°
2026-05-04 15:14 43.53736 16.29814 73 ft 10 kts 353°
2026-05-04 15:14 43.53813 16.29890 70 ft 12 kts 59°
2026-05-04 15:14 43.53862 16.29980 66 ft 12 kts 52°
2026-05-04 15:15 43.53894 16.30038 70 ft 12 kts 52°
2026-05-04 15:15 43.53956 16.30087 69 ft 10 kts 23°
2026-05-04 15:15 43.54026 16.30113 69 ft 10 kts 13°
2026-05-04 15:16 43.54141 16.30237 68 ft 12 kts 52°
2026-05-04 15:16 43.54197 16.30336 64 ft 14 kts 52°
2026-05-04 15:16 43.54359 16.30626 55 ft 32 kts 52°
2026-05-04 15:17 43.54492 16.30865 53 ft 31 kts 52°
2026-05-04 15:17 43.54569 16.31065 59 ft 3 kts 10°
2026-05-04 15:17 43.54586 16.31045 54 ft 4 kts 285°
2026-05-04 15:18 43.54577 16.31020 62 ft 0 kts 231°
2026-05-04 15:18 43.54574 16.31015 61 ft 8 kts 231°
2026-05-04 15:18 43.54322 16.30566 55 ft 109 kts 232°
2026-05-04 15:19 43.52889 16.27988 1184 ft 200 kts 232°
2026-05-04 15:19 43.51987 16.26419 2171 ft 217 kts 230°
2026-05-04 15:19 43.49629 16.23525 3940 ft 237 kts 220°
2026-05-04 15:20 43.48534 16.21785 4620 ft 246 kts 234°
2026-05-04 15:20 43.47483 16.19793 5105 ft 266 kts 233°
2026-05-04 15:20 43.46491 16.17612 5958 ft 272 kts 252°
2026-05-04 15:20 43.46341 16.15027 6904 ft 275 kts 279°
2026-05-04 15:21 43.46978 16.12532 7778 ft 280 kts 301°
2026-05-04 15:21 43.48259 16.10496 8551 ft 286 kts 319°
2026-05-04 15:21 43.51466 16.07225 8982 ft 293 kts 324°
2026-05-04 15:22 43.53134 16.05553 8992 ft 292 kts 323°
2026-05-04 15:22 43.54750 16.03915 8986 ft 290 kts 326°
2026-05-04 15:22 43.58602 16.03016 9002 ft 287 kts 12°
2026-05-04 15:23 43.60557 16.03613 8995 ft 289 kts 13°
2026-05-04 15:23 43.62514 16.04247 8991 ft 289 kts 14°
2026-05-04 15:23 43.64477 16.04878 9000 ft 290 kts 13°
2026-05-04 15:23 43.66469 16.05504 9347 ft 297 kts 13°
2026-05-04 15:24 43.70579 16.06775 10798 ft 318 kts 13°
2026-05-04 15:24 43.75155 16.08628 10993 ft 363 kts 22°
2026-05-04 15:25 43.77498 16.09927 10992 ft 362 kts 23°
2026-05-04 15:25 43.79832 16.11256 10978 ft 361 kts 23°
2026-05-04 15:25 43.82160 16.12566 10988 ft 362 kts 22°
2026-05-04 15:26 43.86849 16.15136 10989 ft 363 kts 22°
2026-05-04 15:26 43.89205 16.16409 10996 ft 363 kts 22°
2026-05-04 15:26 43.93926 16.18951 10975 ft 363 kts 22°
2026-05-04 15:27 43.96245 16.20200 10992 ft 363 kts 22°
2026-05-04 15:27 44.00981 16.22762 11654 ft 368 kts 22°
2026-05-04 15:28 44.05763 16.25363 13422 ft 373 kts 22°
2026-05-04 15:28 44.08200 16.26690 14100 ft 380 kts 22°
2026-05-04 15:28 44.13145 16.29384 15664 ft 385 kts 21°
2026-05-04 15:29 44.15759 16.30266 16306 ft 390 kts
2026-05-04 15:30 44.26692 16.28776 19137 ft 400 kts 353°
2026-05-04 15:30 44.34998 16.27479 20998 ft 407 kts 353°
2026-05-04 15:31 44.40653 16.26634 22247 ft 410 kts 352°
2026-05-04 15:31 44.43500 16.26213 22759 ft 414 kts 353°
2026-05-04 15:32 44.52164 16.24931 24257 ft 422 kts 353°
2026-05-04 15:32 44.58053 16.24059 25126 ft 427 kts 353°
2026-05-04 15:33 44.64007 16.23176 25947 ft 432 kts 353°
2026-05-04 15:34 44.73068 16.21827 27093 ft 440 kts 353°
2026-05-04 15:34 44.76087 16.21376 27464 ft 442 kts 353°
2026-05-04 15:34 44.82228 16.20458 28198 ft 447 kts 353°
2026-05-04 15:35 44.88460 16.19525 28880 ft 452 kts 353°
2026-05-04 15:35 44.91594 16.19055 29220 ft 454 kts 353°
2026-05-04 15:35 44.94738 16.18582 29630 ft 454 kts 353°
2026-05-04 15:36 45.00965 16.17647 30578 ft 450 kts 352°
2026-05-04 15:36 45.04105 16.17174 31013 ft 448 kts 352°
2026-05-04 15:36 45.07163 16.16713 31393 ft 447 kts 352°
2026-05-04 15:37 45.10258 16.16245 31767 ft 446 kts 352°
2026-05-04 15:37 45.13335 16.15780 32179 ft 445 kts 352°
2026-05-04 15:37 45.16416 16.15314 32611 ft 443 kts 352°
2026-05-04 15:37 45.19473 16.14851 33001 ft 441 kts 352°
2026-05-04 15:38 45.22529 16.14388 33373 ft 441 kts 352°
2026-05-04 15:38 45.25574 16.13925 33764 ft 439 kts 352°
2026-05-04 15:38 45.28615 16.13463 34128 ft 438 kts 352°
2026-05-04 15:38 45.31635 16.13003 34428 ft 438 kts 352°
2026-05-04 15:39 45.34673 16.12540 34672 ft 438 kts 352°
2026-05-04 15:39 45.37705 16.12077 34935 ft 438 kts 352°
2026-05-04 15:39 45.43729 16.11157 35479 ft 438 kts 352°
2026-05-04 15:40 45.46768 16.10692 35711 ft 439 kts 352°
2026-05-04 15:40 45.49812 16.10226 35985 ft 439 kts 352°
2026-05-04 15:40 45.52848 16.09760 36250 ft 438 kts 352°
2026-05-04 15:40 45.55863 16.09298 36492 ft 439 kts 352°
2026-05-04 15:41 45.58920 16.08828 36736 ft 439 kts 352°
2026-05-04 15:41 45.61953 16.08361 37002 ft 438 kts 352°
2026-05-04 15:41 45.64985 16.07894 37246 ft 438 kts 352°
2026-05-04 15:41 45.68008 16.07429 37467 ft 439 kts 352°
2026-05-04 15:42 45.71060 16.06958 37716 ft 439 kts 351°
2026-05-04 15:42 45.74103 16.06488 37958 ft 438 kts 352°
2026-05-04 15:42 45.77137 16.06018 38010 ft 442 kts 352°
2026-05-04 15:43 45.83257 16.05070 38013 ft 440 kts 352°
2026-05-04 15:43 45.89283 16.04135 38015 ft 436 kts 351°
2026-05-04 15:44 45.95304 16.03199 38018 ft 434 kts 352°
2026-05-04 15:44 46.01301 16.02263 38020 ft 433 kts 351°
2026-05-04 15:45 46.07282 16.01328 38025 ft 432 kts 351°
2026-05-04 15:45 46.13285 16.00387 38022 ft 434 kts 351°
2026-05-04 15:46 46.19311 15.99441 38022 ft 436 kts 352°
2026-05-04 15:46 46.25361 15.98489 38018 ft 438 kts 351°
2026-05-04 15:47 46.31447 15.97618 37995 ft 442 kts 356°
2026-05-04 15:47 46.37623 15.98002 38000 ft 444 kts
2026-05-04 15:48 46.43781 15.98651 37998 ft 443 kts
2026-05-04 15:48 46.52988 15.99557 37997 ft 442 kts
2026-05-04 15:49 46.59117 16.00115 37992 ft 441 kts
2026-05-04 15:49 46.65211 16.00661 37991 ft 441 kts
2026-05-04 15:50 46.71324 16.01210 37998 ft 440 kts
2026-05-04 15:50 46.77428 16.01760 38002 ft 440 kts
2026-05-04 15:51 46.83553 16.02313 37996 ft 441 kts
2026-05-04 15:51 46.89674 16.02868 38001 ft 441 kts
2026-05-04 15:52 46.95812 16.03426 37993 ft 442 kts
2026-05-04 15:52 47.01948 16.03985 37993 ft 442 kts
2026-05-04 15:53 47.08100 16.04547 37993 ft 443 kts
2026-05-04 15:53 47.14224 16.05107 37993 ft 443 kts
2026-05-04 15:54 47.20375 16.05672 37995 ft 444 kts
2026-05-04 15:54 47.26559 16.06240 37996 ft 444 kts
2026-05-04 15:55 47.32690 16.06805 37999 ft 444 kts
2026-05-04 15:55 47.38902 16.07379 37995 ft 444 kts
2026-05-04 15:56 47.45074 16.07951 37991 ft 444 kts
2026-05-04 15:56 47.51252 16.08524 37985 ft 444 kts
2026-05-04 15:57 47.57374 16.09094 37982 ft 444 kts
2026-05-04 15:57 47.63567 16.09672 37983 ft 444 kts
2026-05-04 15:58 47.69741 16.10249 37977 ft 444 kts
2026-05-04 15:58 47.75907 16.10826 37967 ft 444 kts
2026-05-04 15:59 47.82074 16.11406 37963 ft 443 kts
2026-05-04 15:59 47.88186 16.11981 37959 ft 443 kts
2026-05-04 16:00 47.94339 16.12562 37951 ft 443 kts
2026-05-04 16:00 48.00497 16.13145 37944 ft 442 kts
2026-05-04 16:01 48.06644 16.13727 37951 ft 442 kts
2026-05-04 16:01 48.12781 16.14310 37933 ft 442 kts
2026-05-04 16:02 48.17891 16.14797 37951 ft 442 kts
2026-05-04 16:03 48.28102 16.15773 37936 ft 442 kts
2026-05-04 16:03 48.33251 16.16266 37947 ft 443 kts
2026-05-04 16:03 48.36323 16.16560 37705 ft 447 kts
2026-05-04 16:04 48.39455 16.16860 37184 ft 447 kts
2026-05-04 16:04 48.45587 16.17454 36099 ft 442 kts
2026-05-04 16:04 48.48649 16.17749 35512 ft 441 kts
2026-05-04 16:05 48.51704 16.18044 34908 ft 440 kts
2026-05-04 16:05 48.54763 16.18340 34282 ft 440 kts
2026-05-04 16:05 48.60849 16.18929 33217 ft 434 kts
2026-05-04 16:06 48.63850 16.19221 32762 ft 429 kts
2026-05-04 16:06 48.72639 16.20076 31456 ft 415 kts
2026-05-04 16:07 48.75508 16.20143 31018 ft 410 kts 353°
2026-05-04 16:07 48.83523 16.16749 29728 ft 395 kts 336°
2026-05-04 16:08 48.86067 16.15180 29252 ft 392 kts 336°
2026-05-04 16:08 48.93537 16.10585 27995 ft 381 kts 336°
2026-05-04 16:09 48.98532 16.07547 27177 ft 399 kts 336°
2026-05-04 16:09 49.03691 16.04422 26283 ft 395 kts 336°
2026-05-04 16:10 49.08755 16.01354 25399 ft 387 kts 336°
2026-05-04 16:11 49.16171 15.96844 24148 ft 378 kts 336°
2026-05-04 16:11 49.18615 15.95354 23717 ft 377 kts 336°
2026-05-04 16:12 49.25843 15.90938 22361 ft 369 kts 336°
2026-05-04 16:12 49.32896 15.86616 21138 ft 359 kts 336°
2026-05-04 16:13 49.37521 15.83774 20349 ft 354 kts 336°
2026-05-04 16:13 49.42060 15.80980 19578 ft 350 kts 336°
2026-05-04 16:14 49.46245 15.77395 18800 ft 341 kts 314°
2026-05-04 16:14 49.48874 15.71418 17744 ft 340 kts 295°
2026-05-04 16:15 49.52050 15.61777 16546 ft 332 kts 294°
2026-05-04 16:16 49.54134 15.55500 15800 ft 327 kts 295°
2026-05-04 16:16 49.57226 15.46264 14716 ft 320 kts 295°
2026-05-04 16:17 49.59242 15.40247 14003 ft 315 kts 295°
2026-05-04 16:18 49.62233 15.31300 12994 ft 309 kts 294°
2026-05-04 16:18 49.63214 15.28358 12959 ft 308 kts 294°
2026-05-04 16:19 49.66023 15.19925 12947 ft 275 kts 294°
2026-05-04 16:19 49.67690 15.14906 12939 ft 250 kts 294°
2026-05-04 16:20 49.69997 15.07929 12614 ft 244 kts 294°
2026-05-04 16:20 49.71958 15.03348 11433 ft 277 kts 305°
2026-05-04 16:21 49.75662 14.96201 10809 ft 278 kts 305°
2026-05-04 16:22 49.78039 14.91483 10246 ft 279 kts 305°
2026-05-04 16:22 49.81556 14.84413 9128 ft 270 kts 305°
2026-05-04 16:23 49.84956 14.77508 8027 ft 272 kts 305°
2026-05-04 16:24 49.89452 14.68374 6576 ft 262 kts 305°
2026-05-04 16:25 49.91663 14.63866 5834 ft 263 kts 305°
2026-05-04 16:26 49.95917 14.55179 4551 ft 237 kts 306°
2026-05-04 16:26 49.98800 14.49310 3983 ft 206 kts 307°
2026-05-04 16:27 50.00480 14.45916 3979 ft 186 kts 305°
2026-05-04 16:28 50.02737 14.41235 3332 ft 178 kts 305°
2026-05-04 16:28 50.04970 14.36635 2475 ft 177 kts 305°
2026-05-04 16:29 50.07577 14.31159 1775 ft 146 kts 307°
2026-05-04 16:30 50.09352 14.27511 1213 ft 132 kts 310°
2026-05-04 16:31 50.10154 14.25876 1188 ft 57 kts 307°
2026-05-04 16:31 50.10403 14.25656 1183 ft 5 kts
2026-05-04 16:32 50.10516 14.25981 1173 ft 18 kts 79°
2026-05-04 16:33 50.10531 14.26246 1169 ft 9 kts 109°
2026-05-04 16:33 50.10465 14.26404 1173 ft 8 kts 124°
2026-05-04 16:34 50.10404 14.26542 1171 ft 7 kts 124°
2026-05-04 16:34 50.10377 14.26603 1172 ft 7 kts 124°
2026-05-04 16:35 50.10370 14.26666 1172 ft 1 kts 52°
2026-05-04 16:35 50.10387 14.26687 1172 ft 0 kts 36°
2026-05-04 16:36 50.10389 14.26689 1171 ft 0 kts 36°
2026-05-04 16:36 50.10389 14.26690 1171 ft 0 kts 35°